Tracking 22882 objects as of 19-Apr-2021
HD Live streaming from Space Station
objects crossing your sky now

NUDT-PHONESAT

Track NUDT-PHONESAT now!
10-day predictions
NUDT-PHONESAT is classified as:


NORAD ID: 40900
Int'l Code: 2015-049B
Perigee: 486.7 km
Apogee: 503.1 km
Inclination: 97.4 °
Period: 94.4 minutes
Semi major axis: 6865 km
RCS: Unknown
Launch date: September 19, 2015
Source: People's Republic of China (PRC)
Launch site: Taiyaun Space Center, China (TSC)

Uplink (MHz):
Downlink (MHz): 437.300
Beacon (MHz):
Mode: 9k6 GFSK
Call sign: BJ1SJ
Status: Inactive

aabbcc
Your satellite tracking list
Your tracking list is empty




NASA's NSSDC Master Catalog

Two Line Element Set (TLE):
1 40900U 15049B   21108.79901852  .00004338  00000-0  17127-3 0  9994
2 40900  97.4235 123.3149 0011930 359.4024 175.3737 15.25998733309725
Source of the keplerian elements: Caltech